SWA989 KBUR-KPHX

Flight info

Callsign SWA989
Flight time 1h 3m
Altitude 35000
Route SLAPP2 BLH HYDRR1
Aircraft B737/M-SADE2E3GIJ4RWZ/LB1D1

Departure

Time 2026-04-30 19:12
Airport Hollywood Burbank/Bob Hope Airport (KBUR)

Arrival

Time 2026-04-30 20:16
Airport Phoenix Sky Harbor International Airport (KPHX)
Time Latitude Longitude Altitude Speed Heading
2026-04-30 18:32 34.19674 -118.35106 694 ft 0 kts 182°
2026-04-30 18:59 34.19697 -118.35103 685 ft 4 kts 206°
2026-04-30 19:00 34.19717 -118.35072 695 ft 0 kts 271°
2026-04-30 19:01 34.19717 -118.35074 695 ft 1 kts 271°
2026-04-30 19:02 34.19717 -118.35144 688 ft 5 kts 270°
2026-04-30 19:02 34.19718 -118.35219 689 ft 4 kts 270°
2026-04-30 19:03 34.19721 -118.35291 689 ft 4 kts 273°
2026-04-30 19:03 34.19724 -118.35360 694 ft 4 kts 277°
2026-04-30 19:04 34.19742 -118.35441 689 ft 8 kts 298°
2026-04-30 19:04 34.19817 -118.35522 690 ft 7 kts 348°
2026-04-30 19:05 34.19913 -118.35545 693 ft 7 kts 348°
2026-04-30 19:05 34.20042 -118.35583 700 ft 13 kts 346°
2026-04-30 19:06 34.20245 -118.35641 713 ft 17 kts 349°
2026-04-30 19:06 34.20366 -118.35673 719 ft 19 kts 347°
2026-04-30 19:06 34.20614 -118.35741 730 ft 19 kts 347°
2026-04-30 19:07 34.20862 -118.35808 746 ft 17 kts 349°
2026-04-30 19:07 34.20974 -118.35838 755 ft 16 kts 349°
2026-04-30 19:08 34.21157 -118.35913 769 ft 0 kts 310°
2026-04-30 19:10 34.21159 -118.35916 770 ft 5 kts 310°
2026-04-30 19:11 34.21198 -118.35968 772 ft 8 kts 311°
2026-04-30 19:11 34.21161 -118.36026 771 ft 8 kts 171°
2026-04-30 19:11 34.20982 -118.35979 758 ft 58 kts 167°
2026-04-30 19:12 34.20234 -118.35767 721 ft 155 kts 166°
2026-04-30 19:12 34.19032 -118.35495 1138 ft 192 kts 170°
2026-04-30 19:12 34.17635 -118.35381 1932 ft 203 kts 191°
2026-04-30 19:13 34.15389 -118.37351 3883 ft 218 kts 227°
2026-04-30 19:13 34.13042 -118.40342 4863 ft 281 kts 229°
2026-04-30 19:13 34.12086 -118.42418 5771 ft 288 kts 261°
2026-04-30 19:14 34.12158 -118.44808 6648 ft 286 kts 288°
2026-04-30 19:14 34.13129 -118.46826 7134 ft 280 kts 319°
2026-04-30 19:14 34.14764 -118.48082 8088 ft 281 kts 343°
2026-04-30 19:14 34.16658 -118.48416 9101 ft 281 kts
2026-04-30 19:15 34.18576 -118.47795 10057 ft 285 kts 25°
2026-04-30 19:15 34.22392 -118.45582 11270 ft 319 kts 27°
2026-04-30 19:15 34.24405 -118.44404 12279 ft 323 kts 25°
2026-04-30 19:16 34.26454 -118.43248 13260 ft 328 kts 24°
2026-04-30 19:16 34.28548 -118.42100 14159 ft 333 kts 24°
2026-04-30 19:16 34.32776 -118.39832 16039 ft 335 kts 23°
2026-04-30 19:17 34.34921 -118.38691 16958 ft 338 kts 23°
2026-04-30 19:17 34.39303 -118.36379 18581 ft 344 kts 21°
2026-04-30 19:17 34.41531 -118.35338 18897 ft 344 kts 20°
2026-04-30 19:18 34.44538 -118.33989 18941 ft 350 kts 21°
2026-04-30 19:18 34.48068 -118.31584 18963 ft 350 kts 37°
2026-04-30 19:18 34.49950 -118.29711 18975 ft 350 kts 38°
2026-04-30 19:19 34.51787 -118.27759 18993 ft 355 kts 46°
2026-04-30 19:19 34.52991 -118.25106 19507 ft 367 kts 70°
2026-04-30 19:19 34.53102 -118.18919 21175 ft 379 kts 97°
2026-04-30 19:20 34.52571 -118.15769 21899 ft 384 kts 99°
2026-04-30 19:20 34.51976 -118.12592 22589 ft 389 kts 99°
2026-04-30 19:20 34.50759 -118.06162 24034 ft 395 kts 99°
2026-04-30 19:21 34.50155 -118.02890 24599 ft 400 kts 99°
2026-04-30 19:21 34.48954 -117.96231 25659 ft 409 kts 98°
2026-04-30 19:22 34.47741 -117.89426 26775 ft 416 kts 98°
2026-04-30 19:22 34.45875 -117.78960 28315 ft 430 kts 98°
2026-04-30 19:23 34.43955 -117.68249 30082 ft 434 kts 98°
2026-04-30 19:24 34.42673 -117.61144 31321 ft 430 kts 98°
2026-04-30 19:24 34.42035 -117.57614 31885 ft 429 kts 98°
2026-04-30 19:24 34.40761 -117.50575 32961 ft 427 kts 98°
2026-04-30 19:25 34.39060 -117.41212 34342 ft 423 kts 98°
2026-04-30 19:26 34.37789 -117.34238 34945 ft 427 kts 98°
2026-04-30 19:26 34.36497 -117.27171 34936 ft 428 kts 98°
2026-04-30 19:27 34.34573 -117.16714 34934 ft 425 kts 98°
2026-04-30 19:28 34.32630 -117.06193 34935 ft 429 kts 98°
2026-04-30 19:28 34.30934 -116.99215 34944 ft 440 kts 105°
2026-04-30 19:29 34.28707 -116.92148 34946 ft 458 kts 107°
2026-04-30 19:30 34.24034 -116.77384 34914 ft 475 kts 107°
2026-04-30 19:31 34.19390 -116.62435 34909 ft 479 kts 107°
2026-04-30 19:31 34.15872 -116.51142 34891 ft 478 kts 106°
2026-04-30 19:32 34.13524 -116.43632 34875 ft 477 kts 106°
2026-04-30 19:32 34.11181 -116.36158 34890 ft 477 kts 106°
2026-04-30 19:33 34.08829 -116.28674 34881 ft 477 kts 107°
2026-04-30 19:33 34.06474 -116.21196 34933 ft 476 kts 107°
2026-04-30 19:34 34.04136 -116.13795 34925 ft 474 kts 107°
2026-04-30 19:35 34.00621 -116.02699 34897 ft 471 kts 107°
2026-04-30 19:35 33.98284 -115.95337 34882 ft 470 kts 107°
2026-04-30 19:36 33.95944 -115.87993 34867 ft 469 kts 107°
2026-04-30 19:36 33.92436 -115.77009 34873 ft 468 kts 107°
2026-04-30 19:37 33.90097 -115.69699 34871 ft 468 kts 108°
2026-04-30 19:37 33.87751 -115.62392 34862 ft 468 kts 109°
2026-04-30 19:38 33.85397 -115.55079 34862 ft 469 kts 109°
2026-04-30 19:38 33.83034 -115.47754 34861 ft 470 kts 109°
2026-04-30 19:39 33.80661 -115.40423 34849 ft 470 kts 109°
2026-04-30 19:39 33.78280 -115.33101 34850 ft 470 kts 109°
2026-04-30 19:40 33.75946 -115.25925 34818 ft 446 kts 110°
2026-04-30 19:40 33.74835 -115.22517 34817 ft 431 kts 110°
2026-04-30 19:40 33.73755 -115.19207 34833 ft 422 kts 110°
2026-04-30 19:41 33.71604 -115.12616 34846 ft 427 kts 110°
2026-04-30 19:41 33.69424 -115.05950 34854 ft 431 kts 110°
2026-04-30 19:42 33.67219 -114.99229 34835 ft 435 kts 112°
2026-04-30 19:42 33.64999 -114.92479 34844 ft 435 kts 112°
2026-04-30 19:43 33.62779 -114.85739 34843 ft 434 kts 114°
2026-04-30 19:44 33.59467 -114.75648 34852 ft 434 kts 111°
2026-04-30 19:44 33.57929 -114.68642 34863 ft 435 kts 104°
2026-04-30 19:45 33.56682 -114.61513 34529 ft 442 kts 104°
2026-04-30 19:45 33.56030 -114.57906 34001 ft 443 kts 104°
2026-04-30 19:45 33.55356 -114.54300 33336 ft 444 kts 104°
2026-04-30 19:45 33.54673 -114.50736 32667 ft 444 kts 104°
2026-04-30 19:46 33.53970 -114.47132 31983 ft 444 kts 104°
2026-04-30 19:46 33.53263 -114.43526 31278 ft 444 kts 103°
2026-04-30 19:46 33.52553 -114.39914 30567 ft 446 kts 103°
2026-04-30 19:46 33.51835 -114.36302 29802 ft 447 kts 103°
2026-04-30 19:47 33.51119 -114.32674 28902 ft 447 kts 103°
2026-04-30 19:47 33.50643 -114.30275 28345 ft 447 kts 103°
2026-04-30 19:47 33.49692 -114.25434 27422 ft 442 kts 103°
2026-04-30 19:47 33.48984 -114.21862 26734 ft 439 kts 103°
2026-04-30 19:48 33.48281 -114.18313 26116 ft 436 kts 103°
2026-04-30 19:48 33.47586 -114.14796 25490 ft 433 kts 103°
2026-04-30 19:48 33.46893 -114.11294 24962 ft 430 kts 103°
2026-04-30 19:48 33.46211 -114.07868 24815 ft 418 kts 103°
2026-04-30 19:49 33.45529 -114.04459 24564 ft 428 kts 104°
2026-04-30 19:49 33.44121 -113.97454 24058 ft 431 kts 104°
2026-04-30 19:49 33.43432 -113.94031 23817 ft 426 kts 104°
2026-04-30 19:50 33.42743 -113.90600 23538 ft 423 kts 104°
2026-04-30 19:50 33.42058 -113.87185 23248 ft 421 kts 104°
2026-04-30 19:50 33.41374 -113.83780 22944 ft 419 kts 104°
2026-04-30 19:50 33.40692 -113.80393 22661 ft 418 kts 104°
2026-04-30 19:51 33.40011 -113.77017 22388 ft 417 kts 104°
2026-04-30 19:51 33.39331 -113.73653 22104 ft 416 kts 104°
2026-04-30 19:51 33.38655 -113.70296 21842 ft 415 kts 105°
2026-04-30 19:51 33.37976 -113.66944 21575 ft 414 kts 105°
2026-04-30 19:52 33.37295 -113.63598 21317 ft 414 kts 105°
2026-04-30 19:52 33.36615 -113.60257 21039 ft 413 kts 105°
2026-04-30 19:52 33.35937 -113.56926 20754 ft 412 kts 105°
2026-04-30 19:52 33.35261 -113.53607 20487 ft 411 kts 105°
2026-04-30 19:53 33.34587 -113.50297 20216 ft 408 kts 105°
2026-04-30 19:53 33.33917 -113.47017 19945 ft 405 kts 105°
2026-04-30 19:53 33.33273 -113.43735 19624 ft 404 kts 104°
2026-04-30 19:53 33.32704 -113.40453 19361 ft 403 kts 103°
2026-04-30 19:54 33.32159 -113.37175 19116 ft 401 kts 103°
2026-04-30 19:54 33.31615 -113.33916 18849 ft 399 kts 103°
2026-04-30 19:54 33.31070 -113.30711 18583 ft 398 kts 103°
2026-04-30 19:54 33.30513 -113.27481 18327 ft 396 kts 103°
2026-04-30 19:55 33.29955 -113.24268 18072 ft 394 kts 103°
2026-04-30 19:55 33.29421 -113.21067 17884 ft 391 kts 102°
2026-04-30 19:55 33.28962 -113.17873 17613 ft 390 kts 101°
2026-04-30 19:55 33.28525 -113.14680 17368 ft 389 kts 101°
2026-04-30 19:56 33.28080 -113.11497 17125 ft 388 kts 101°
2026-04-30 19:56 33.27628 -113.08331 16857 ft 387 kts 101°
2026-04-30 19:56 33.27335 -113.05134 16593 ft 388 kts 92°
2026-04-30 19:56 33.27400 -113.01910 16363 ft 388 kts 88°
2026-04-30 19:57 33.27542 -112.98693 16113 ft 388 kts 88°
2026-04-30 19:57 33.27681 -112.95478 15867 ft 387 kts 88°
2026-04-30 19:57 33.27794 -112.92272 15616 ft 386 kts 89°
2026-04-30 19:57 33.27886 -112.89076 15368 ft 384 kts 89°
2026-04-30 19:58 33.27964 -112.85890 15134 ft 382 kts 89°
2026-04-30 19:58 33.28039 -112.82732 14882 ft 380 kts 89°
2026-04-30 19:58 33.28200 -112.79583 14628 ft 379 kts 85°
2026-04-30 19:58 33.28485 -112.76457 14381 ft 378 kts 84°
2026-04-30 19:59 33.28806 -112.73351 14148 ft 376 kts 83°
2026-04-30 19:59 33.29128 -112.70256 13901 ft 374 kts 83°
2026-04-30 19:59 33.29739 -112.64108 13387 ft 371 kts 84°
2026-04-30 20:00 33.30031 -112.61047 13129 ft 369 kts 84°
2026-04-30 20:00 33.30317 -112.58006 12879 ft 367 kts 84°
2026-04-30 20:00 33.30599 -112.54974 12623 ft 366 kts 84°
2026-04-30 20:00 33.30878 -112.51953 12379 ft 365 kts 84°
2026-04-30 20:01 33.31431 -112.45955 11916 ft 362 kts 84°
2026-04-30 20:01 33.31706 -112.42966 11671 ft 361 kts 84°
2026-04-30 20:01 33.31975 -112.40024 11438 ft 360 kts 84°
2026-04-30 20:02 33.32516 -112.34085 10985 ft 358 kts 84°
2026-04-30 20:02 33.32786 -112.31126 10731 ft 358 kts 84°
2026-04-30 20:03 33.33324 -112.25222 10265 ft 355 kts 84°
2026-04-30 20:03 33.33590 -112.22293 10037 ft 354 kts 84°
2026-04-30 20:03 33.33855 -112.19368 9785 ft 353 kts 83°
2026-04-30 20:03 33.34119 -112.16452 9545 ft 352 kts 84°
2026-04-30 20:04 33.34381 -112.13549 9301 ft 351 kts 84°
2026-04-30 20:04 33.34640 -112.10659 9076 ft 349 kts 84°
2026-04-30 20:04 33.34825 -112.07772 8986 ft 347 kts 89°
2026-04-30 20:05 33.34710 -112.02006 8983 ft 348 kts 92°
2026-04-30 20:05 33.34644 -111.99129 8974 ft 345 kts 91°
2026-04-30 20:05 33.34559 -111.93363 8974 ft 348 kts 90°
2026-04-30 20:06 33.34572 -111.90469 9015 ft 348 kts 89°
2026-04-30 20:06 33.34622 -111.87575 9004 ft 348 kts 89°
2026-04-30 20:06 33.34685 -111.84687 8996 ft 347 kts 88°
2026-04-30 20:06 33.34751 -111.81800 8995 ft 347 kts 89°
2026-04-30 20:07 33.34807 -111.78927 8956 ft 342 kts 89°
2026-04-30 20:07 33.34830 -111.76136 8873 ft 327 kts 90°
2026-04-30 20:07 33.34866 -111.70947 8657 ft 297 kts 90°
2026-04-30 20:08 33.34870 -111.68559 8523 ft 278 kts 91°
2026-04-30 20:08 33.34873 -111.66299 8178 ft 268 kts 88°
2026-04-30 20:08 33.35317 -111.64178 7777 ft 263 kts 60°
2026-04-30 20:08 33.36533 -111.62616 7437 ft 256 kts 30°
2026-04-30 20:09 33.38172 -111.61921 7152 ft 247 kts
2026-04-30 20:09 33.39842 -111.62048 6804 ft 238 kts 336°
2026-04-30 20:09 33.41747 -111.64858 6292 ft 226 kts 282°
2026-04-30 20:10 33.42091 -111.68582 5698 ft 217 kts 271°
2026-04-30 20:10 33.42176 -111.70304 5420 ft 205 kts 271°
2026-04-30 20:10 33.42236 -111.71437 5208 ft 199 kts 270°
2026-04-30 20:11 33.42427 -111.74639 4634 ft 192 kts 270°
2026-04-30 20:11 33.42525 -111.76212 4337 ft 189 kts 272°
2026-04-30 20:11 33.42627 -111.77769 4062 ft 187 kts 271°
2026-04-30 20:12 33.42836 -111.80850 3449 ft 186 kts 272°
2026-04-30 20:12 33.42883 -111.82395 3179 ft 185 kts 269°
2026-04-30 20:12 33.42888 -111.83918 3033 ft 186 kts 269°
2026-04-30 20:13 33.42889 -111.85454 3004 ft 179 kts 268°
2026-04-30 20:13 33.42889 -111.86884 2949 ft 166 kts 269°
2026-04-30 20:13 33.42888 -111.88217 2995 ft 151 kts 269°
2026-04-30 20:13 33.42886 -111.89459 2855 ft 150 kts 269°
2026-04-30 20:14 33.42885 -111.90724 2664 ft 152 kts 269°
2026-04-30 20:14 33.42896 -111.91974 2512 ft 149 kts 270°
2026-04-30 20:14 33.42907 -111.93195 2338 ft 149 kts 265°
2026-04-30 20:14 33.42881 -111.94454 2112 ft 148 kts 268°
2026-04-30 20:15 33.42880 -111.95723 1892 ft 164 kts 269°
2026-04-30 20:15 33.42875 -111.97045 1670 ft 152 kts 270°
2026-04-30 20:15 33.42887 -111.98322 1482 ft 155 kts 268°
2026-04-30 20:15 33.42882 -111.99575 1262 ft 149 kts 268°
2026-04-30 20:16 33.42879 -112.00755 1126 ft 131 kts 267°
2026-04-30 20:16 33.42884 -112.01511 1128 ft 47 kts 270°
2026-04-30 20:16 33.42954 -112.01656 1122 ft 13 kts 359°
2026-04-30 20:16 33.43020 -112.01607 1118 ft 11 kts 40°
2026-04-30 20:17 33.43120 -112.01566 1122 ft 14 kts 359°
2026-04-30 20:17 33.43214 -112.01548 1120 ft 9 kts 65°
2026-04-30 20:17 33.43215 -112.01474 1116 ft 9 kts 90°
2026-04-30 20:17 33.43215 -112.01403 1115 ft 8 kts 90°
2026-04-30 20:18 33.43215 -112.01334 1113 ft 8 kts 90°
2026-04-30 20:18 33.43216 -112.01266 1124 ft 8 kts 89°
2026-04-30 20:18 33.43216 -112.01201 1123 ft 8 kts 89°
2026-04-30 20:18 33.43215 -112.01114 1117 ft 15 kts 91°
2026-04-30 20:19 33.43214 -112.00956 1125 ft 23 kts 91°
2026-04-30 20:19 33.43215 -112.00753 1126 ft 24 kts 89°
2026-04-30 20:19 33.43215 -112.00561 1126 ft 23 kts 90°
2026-04-30 20:19 33.43216 -112.00375 1124 ft 22 kts 89°
2026-04-30 20:20 33.43214 -112.00195 1117 ft 21 kts 91°
2026-04-30 20:20 33.43214 -112.00021 1123 ft 21 kts 89°
2026-04-30 20:20 33.43214 -111.99853 1112 ft 20 kts 90°
2026-04-30 20:20 33.43215 -111.99692 1126 ft 19 kts 89°
2026-04-30 20:21 33.43240 -111.99553 1120 ft 13 kts 28°
2026-04-30 20:21 33.43328 -111.99525 1121 ft 12 kts 16°
2026-04-30 20:21 33.43354 -111.99483 1124 ft 0 kts 66°
2026-04-30 20:21 33.43356 -111.99475 1124 ft 0 kts 70°